Location: Allens Landing
(37.8284°N, 89.7284°W)
Time: 19:09:17
(UTC+00:00)

Vanguard 2 - Visible Passes

Search period start: 13 November 2024 00:00
Search period end: 23 November 2024 00:00
Orbit: 552 x 2909 km, 32.9° (Epoch: 12 November)

Date Brightness Start Highest point End Pass type
(mag) Time Alt. Az. Time Alt. Az. Time Alt. Az.
19 Nov 9.7 11:13:34 10° S 11:15:50 14° SSE 11:18:23 10° ESE visible
20 Nov 9.4 11:26:10 10° SSW 11:29:12 20° SSE 11:32:47 10° ESE visible
21 Nov 9.0 11:39:12 10° SW 11:42:37 26° SSE 11:46:48 10° E visible
22 Nov 8.6 11:52:26 10° SW 11:56:06 33° SSE 12:00:40 10° E visible
